Location: Unspecified
(43.4354°N, 0.0000°E)
Time: 11:09:33
(UTC+00:00)

Courier 1B - Pass Details

Date: 23 June 2019
Orbit: 962 x 1209 km, 28.3° (Epoch: 17 October)

Event Time Altitude Azimuth Distance (km) Brightness Sun altitude
Rises 17:34:18 0° 219° (SW) 3,778 10.9 20.8°
Reaches altitude 10° 17:37:58 10° 200° (SSW) 2,875 10.1 20.1°
Maximum altitude 17:42:18 17° 162° (SSE) 2,435 9.4 19.3°
Drops below altitude 10° 17:46:46 10° 124° (SE) 2,995 9.6 18.6°
Sets 17:50:42 0° 106° (ESE) 4,003 10.1 17.9°
